Time,TemperatureF,DewpointF,PressureIn,WindDirection,WindDirectionDegrees,WindSpeedMPH,WindSpeedGustMPH,Humidity,HourlyPrecipIn,Conditions,Clouds,dailyrainin,SoftwareType,DateUTC
2013-07-30 00:00:00,68.6,68.6,29.80,East,92,0.0,0.0,100,0.00,,,0.00,VWS V14.01,2013-07-30 04:00:00,
2013-07-30 00:01:00,68.6,68.6,29.80,East,92,0.0,0.0,100,0.00,,,0.00,VWS V14.01,2013-07-30 04:01:00,
2013-07-30 00:06:00,68.4,68.4,29.80,East,92,0.0,0.0,100,0.00,,,0.00,VWS V14.01,2013-07-30 04:06:00,
2013-07-30 00:10:00,68.4,68.4,29.80,East,92,0.0,0.0,100,0.00,,,0.00,VWS V14.01,2013-07-30 04:10:00,
2013-07-30 00:11:00,68.4,68.4,29.80,East,92,0.0,0.0,100,0.00,,,0.00,VWS V14.01,2013-07-30 04:11:00,
2013-07-30 00:16:00,68.3,68.3,29.80,East,92,0.0,0.0,100,0.00,,,0.00,VWS V14.01,2013-07-30 04:16:00,
2013-07-30 00:20:00,68.3,68.3,29.80,East,92,0.0,0.0,100,0.00,,,0.00,VWS V14.01,2013-07-30 04:20:00,
2013-07-30 00:21:00,68.3,68.3,29.77,East,92,0.0,0.0,100,0.00,,,0.00,VWS V14.01,2013-07-30 04:21:00,
2013-07-30 00:26:00,68.1,68.1,29.77,East,92,0.0,0.0,100,0.00,,,0.00,VWS V14.01,2013-07-30 04:26:00,
2013-07-30 00:30:00,68.1,68.1,29.77,East,92,0.0,0.0,100,0.00,,,0.00,VWS V14.01,2013-07-30 04:30:00,
2013-07-30 00:36:00,67.7,67.7,29.77,East,92,0.0,0.0,100,0.00,,,0.00,VWS V14.01,2013-07-30 04:36:00,
2013-07-30 00:40:00,67.5,67.5,29.77,East,92,0.0,0.0,100,0.00,,,0.00,VWS V14.01,2013-07-30 04:40:00,
2013-07-30 00:41:00,67.5,67.5,29.77,East,92,0.0,0.0,100,0.00,,,0.00,VWS V14.01,2013-07-30 04:41:00,
2013-07-30 00:46:00,67.4,67.4,29.77,East,92,0.0,0.0,100,0.00,,,0.00,VWS V14.01,2013-07-30 04:46:00,
2013-07-30 00:50:00,67.4,67.4,29.77,East,92,0.0,0.0,100,0.00,,,0.00,VWS V14.01,2013-07-30 04:50:00,
2013-07-30 00:51:00,67.4,67.4,29.77,East,92,0.0,0.0,100,0.00,,,0.00,VWS V14.01,2013-07-30 04:51:00,
2013-07-30 00:56:00,67.4,67.4,29.77,East,92,0.0,0.0,100,0.00,,,0.00,VWS V14.01,2013-07-30 04:56:00,
2013-07-30 01:00:00,67.4,67.4,29.77,East,92,0.0,0.0,100,0.00,,,0.00,VWS V14.01,2013-07-30 05:00:00,
2013-07-30 01:01:00,67.4,67.4,29.77,East,92,0.0,0.0,100,0.00,,,0.00,VWS V14.01,2013-07-30 05:01:00,
2013-07-30 01:06:00,67.4,67.4,29.77,East,92,0.0,0.0,100,0.00,,,0.00,VWS V14.01,2013-07-30 05:06:00,
2013-07-30 01:10:00,67.2,67.2,29.77,East,92,0.0,0.0,100,0.00,,,0.00,VWS V14.01,2013-07-30 05:10:00,
2013-07-30 01:11:00,67.2,67.2,29.77,East,92,0.0,0.0,100,0.00,,,0.00,VWS V14.01,2013-07-30 05:11:00,
2013-07-30 01:16:00,67.0,67.0,29.77,East,92,0.0,0.0,100,0.00,,,0.00,VWS V14.01,2013-07-30 05:16:00,
2013-07-30 01:20:00,67.0,67.0,29.77,East,92,0.0,0.0,100,0.00,,,0.00,VWS V14.01,2013-07-30 05:20:00,
2013-07-30 01:21:00,67.0,67.0,29.77,East,92,0.0,0.0,100,0.00,,,0.00,VWS V14.01,2013-07-30 05:21:00,
2013-07-30 01:26:00,67.0,67.0,29.77,East,92,0.0,0.0,100,0.00,,,0.00,VWS V14.01,2013-07-30 05:26:00,
2013-07-30 01:30:00,66.8,66.8,29.77,East,92,0.0,0.0,100,0.00,,,0.00,VWS V14.01,2013-07-30 05:30:00,
2013-07-30 01:31:00,66.6,66.6,29.77,East,92,0.0,0.0,100,0.00,,,0.00,VWS V14.01,2013-07-30 05:31:00,
2013-07-30 01:36:00,66.6,66.6,29.77,East,92,0.0,0.0,100,0.00,,,0.00,VWS V14.01,2013-07-30 05:36:00,
2013-07-30 01:40:00,66.5,66.5,29.77,East,92,0.0,0.0,100,0.00,,,0.00,VWS V14.01,2013-07-30 05:40:00,
2013-07-30 01:42:00,66.3,66.3,29.77,East,92,0.0,0.0,100,0.00,,,0.00,VWS V14.01,2013-07-30 05:42:00,
2013-07-30 01:47:00,66.3,66.3,29.77,East,92,0.0,0.0,100,0.00,,,0.00,VWS V14.01,2013-07-30 05:47:00,
2013-07-30 01:50:00,66.3,66.3,29.77,East,92,0.0,0.0,100,0.00,,,0.00,VWS V14.01,2013-07-30 05:50:00,
2013-07-30 01:52:00,66.3,66.3,29.77,East,92,0.0,0.0,100,0.00,,,0.00,VWS V14.01,2013-07-30 05:52:00,
2013-07-30 02:00:00,66.1,66.1,29.77,East,92,0.0,0.0,100,0.00,,,0.00,VWS V14.01,2013-07-30 06:00:00,
2013-07-30 02:02:00,66.1,66.1,29.77,East,92,0.0,0.0,100,0.00,,,0.00,VWS V14.01,2013-07-30 06:02:00,
2013-07-30 02:07:00,65.9,65.9,29.77,East,92,0.0,0.0,100,0.00,,,0.00,VWS V14.01,2013-07-30 06:07:00,
2013-07-30 02:12:00,65.9,65.9,29.77,East,92,0.0,0.0,100,0.00,,,0.00,VWS V14.01,2013-07-30 06:12:00,
2013-07-30 02:17:00,65.9,65.9,29.77,East,92,0.0,0.0,100,0.00,,,0.00,VWS V14.01,2013-07-30 06:17:00,
2013-07-30 02:20:00,65.7,65.7,29.77,East,92,0.0,0.0,100,0.00,,,0.00,VWS V14.01,2013-07-30 06:20:00,
2013-07-30 02:22:00,65.7,65.7,29.77,East,92,0.0,0.0,100,0.00,,,0.00,VWS V14.01,2013-07-30 06:22:00,
2013-07-30 02:27:00,65.6,65.6,29.74,East,92,0.0,0.0,100,0.00,,,0.00,VWS V14.01,2013-07-30 06:27:00,
2013-07-30 02:30:00,65.6,65.6,29.74,East,92,0.0,0.0,100,0.00,,,0.00,VWS V14.01,2013-07-30 06:30:00,
2013-07-30 02:32:00,65.6,65.6,29.74,East,92,0.0,0.0,100,0.00,,,0.00,VWS V14.01,2013-07-30 06:32:00,
2013-07-30 02:37:00,65.4,65.4,29.74,East,92,0.0,0.0,100,0.00,,,0.00,VWS V14.01,2013-07-30 06:37:00,
2013-07-30 02:42:00,65.6,65.6,29.74,East,92,0.0,0.0,100,0.00,,,0.00,VWS V14.01,2013-07-30 06:42:00,
2013-07-30 02:47:00,65.6,65.6,29.74,East,92,0.0,0.0,100,0.00,,,0.00,VWS V14.01,2013-07-30 06:47:00,
2013-07-30 02:50:00,65.6,65.6,29.74,East,92,0.0,0.0,100,0.00,,,0.00,VWS V14.01,2013-07-30 06:50:00,
2013-07-30 02:57:00,65.4,65.4,29.74,East,92,0.0,0.0,100,0.00,,,0.00,VWS V14.01,2013-07-30 06:57:00,
2013-07-30 03:00:00,65.4,65.4,29.74,East,92,0.0,0.0,100,0.00,,,0.00,VWS V14.01,2013-07-30 07:00:00,
2013-07-30 03:02:00,65.4,65.4,29.74,East,92,0.0,0.0,100,0.00,,,0.00,VWS V14.01,2013-07-30 07:02:00,
2013-07-30 03:07:00,65.2,65.2,29.74,East,92,0.0,0.0,100,0.00,,,0.00,VWS V14.01,2013-07-30 07:07:00,
2013-07-30 03:10:00,65.2,65.2,29.74,East,92,0.0,0.0,100,0.00,,,0.00,VWS V14.01,2013-07-30 07:10:00,
2013-07-30 03:12:00,65.2,65.2,29.74,East,92,0.0,0.0,100,0.00,,,0.00,VWS V14.01,2013-07-30 07:12:00,
2013-07-30 03:17:00,65.2,65.2,29.74,East,92,0.0,0.0,100,0.00,,,0.00,VWS V14.01,2013-07-30 07:17:00,
2013-07-30 03:20:00,65.2,65.2,29.74,East,92,0.0,0.0,100,0.00,,,0.00,VWS V14.01,2013-07-30 07:20:00,
2013-07-30 03:22:00,65.2,65.2,29.74,East,92,0.0,0.0,100,0.00,,,0.00,VWS V14.01,2013-07-30 07:22:00,
2013-07-30 03:27:00,65.2,65.2,29.74,East,92,0.0,0.0,100,0.00,,,0.00,VWS V14.01,2013-07-30 07:27:00,
2013-07-30 03:32:00,65.0,65.0,29.74,East,92,0.0,0.0,100,0.00,,,0.00,VWS V14.01,2013-07-30 07:32:00,
2013-07-30 03:38:00,65.0,65.0,29.74,East,92,0.0,0.0,100,0.00,,,0.00,VWS V14.01,2013-07-30 07:38:00,
2013-07-30 03:40:00,65.0,65.0,29.74,East,92,0.0,0.0,100,0.00,,,0.00,VWS V14.01,2013-07-30 07:40:00,
2013-07-30 03:43:00,64.8,64.8,29.74,East,92,0.0,0.0,100,0.00,,,0.00,VWS V14.01,2013-07-30 07:43:00,
2013-07-30 03:48:00,64.8,64.8,29.74,East,92,0.0,0.0,100,0.00,,,0.00,VWS V14.01,2013-07-30 07:48:00,
2013-07-30 03:50:00,64.8,64.8,29.74,East,92,0.0,0.0,100,0.00,,,0.00,VWS V14.01,2013-07-30 07:50:00,
2013-07-30 03:53:00,64.8,64.8,29.74,East,92,0.0,0.0,100,0.00,,,0.00,VWS V14.01,2013-07-30 07:53:00,
2013-07-30 03:58:00,64.8,64.8,29.74,East,92,0.0,0.0,100,0.00,,,0.00,VWS V14.01,2013-07-30 07:58:00,
2013-07-30 04:03:00,64.8,64.8,29.74,East,92,0.0,0.0,100,0.00,,,0.00,VWS V14.01,2013-07-30 08:03:00,
2013-07-30 04:08:00,64.5,64.5,29.74,East,92,0.0,0.0,100,0.00,,,0.00,VWS V14.01,2013-07-30 08:08:00,
2013-07-30 04:13:00,64.5,64.5,29.74,East,92,0.0,0.0,100,0.00,,,0.00,VWS V14.01,2013-07-30 08:13:00,
2013-07-30 04:18:00,64.5,64.5,29.74,East,92,0.0,0.0,100,0.00,,,0.00,VWS V14.01,2013-07-30 08:18:00,
2013-07-30 04:23:00,64.5,64.5,29.74,East,92,0.0,0.0,100,0.00,,,0.00,VWS V14.01,2013-07-30 08:23:00,
2013-07-30 04:28:00,64.5,64.5,29.74,East,92,0.0,0.0,100,0.00,,,0.00,VWS V14.01,2013-07-30 08:28:00,
2013-07-30 04:30:00,64.5,64.5,29.74,East,92,0.0,0.0,100,0.00,,,0.00,VWS V14.01,2013-07-30 08:30:00,
2013-07-30 04:33:00,64.1,64.1,29.74,East,92,0.0,0.0,100,0.00,,,0.00,VWS V14.01,2013-07-30 08:33:00,
2013-07-30 04:38:00,64.1,64.1,29.74,East,92,0.0,0.0,100,0.00,,,0.00,VWS V14.01,2013-07-30 08:38:00,
2013-07-30 04:40:00,63.9,63.9,29.74,East,92,0.0,0.0,100,0.00,,,0.00,VWS V14.01,2013-07-30 08:40:00,
2013-07-30 04:48:00,63.9,63.9,29.74,East,92,0.0,0.0,100,0.00,,,0.00,VWS V14.01,2013-07-30 08:48:00,
2013-07-30 04:50:00,63.9,63.9,29.74,East,92,0.0,0.0,100,0.00,,,0.00,VWS V14.01,2013-07-30 08:50:00,
2013-07-30 04:53:00,63.9,63.9,29.74,East,92,0.0,0.0,100,0.00,,,0.00,VWS V14.01,2013-07-30 08:53:00,
2013-07-30 04:58:00,63.8,63.8,29.74,East,92,0.0,0.0,100,0.00,,,0.00,VWS V14.01,2013-07-30 08:58:00,
2013-07-30 05:00:00,63.8,63.8,29.74,East,92,0.0,0.0,100,0.00,,,0.00,VWS V14.01,2013-07-30 09:00:00,
2013-07-30 05:03:00,63.8,63.8,29.74,East,92,0.0,0.0,100,0.00,,,0.00,VWS V14.01,2013-07-30 09:03:00,
2013-07-30 05:08:00,63.6,63.6,29.74,East,92,0.0,0.0,100,0.00,,,0.00,VWS V14.01,2013-07-30 09:08:00,
2013-07-30 05:13:00,63.6,63.6,29.74,East,92,0.0,0.0,100,0.00,,,0.00,VWS V14.01,2013-07-30 09:13:00,
2013-07-30 05:18:00,63.6,63.6,29.74,East,92,0.0,0.0,100,0.00,,,0.00,VWS V14.01,2013-07-30 09:18:00,
2013-07-30 05:23:00,63.6,63.6,29.74,East,92,0.0,0.0,100,0.00,,,0.00,VWS V14.01,2013-07-30 09:23:00,
2013-07-30 05:28:00,63.4,63.4,29.74,East,92,0.0,0.0,100,0.00,,,0.00,VWS V14.01,2013-07-30 09:28:00,
2013-07-30 05:30:00,63.4,63.4,29.74,East,92,0.0,0.0,100,0.00,,,0.00,VWS V14.01,2013-07-30 09:30:00,
2013-07-30 05:33:00,63.2,63.2,29.74,East,92,0.0,0.0,100,0.00,,,0.00,VWS V14.01,2013-07-30 09:33:00,
2013-07-30 05:38:00,63.2,63.2,29.74,East,92,0.0,0.0,100,0.00,,,0.00,VWS V14.01,2013-07-30 09:38:00,
2013-07-30 05:40:00,63.2,63.2,29.74,East,92,0.0,0.0,100,0.00,,,0.00,VWS V14.01,2013-07-30 09:40:00,
2013-07-30 05:43:00,63.2,63.2,29.74,East,92,0.0,0.0,100,0.00,,,0.00,VWS V14.01,2013-07-30 09:43:00,
2013-07-30 05:48:00,63.0,63.0,29.74,East,92,0.0,0.0,100,0.00,,,0.00,VWS V14.01,2013-07-30 09:48:00,
2013-07-30 05:50:00,63.0,63.0,29.74,East,92,0.0,0.0,100,0.00,,,0.00,VWS V14.01,2013-07-30 09:50:00,
2013-07-30 05:53:00,63.0,63.0,29.74,East,92,0.0,0.0,100,0.00,,,0.00,VWS V14.01,2013-07-30 09:53:00,
2013-07-30 05:58:00,63.0,63.0,29.74,East,92,0.0,0.0,100,0.00,,,0.00,VWS V14.01,2013-07-30 09:58:00,
2013-07-30 06:00:00,63.0,63.0,29.74,East,92,0.0,0.0,100,0.00,,,0.00,VWS V14.01,2013-07-30 10:00:00,
2013-07-30 06:03:00,62.9,62.9,29.74,East,92,0.0,0.0,100,0.00,,,0.00,VWS V14.01,2013-07-30 10:03:00,
2013-07-30 06:08:00,62.7,62.7,29.74,East,92,0.0,0.0,100,0.00,,,0.00,VWS V14.01,2013-07-30 10:08:00,
2013-07-30 06:10:00,62.7,62.7,29.74,East,92,0.0,0.0,100,0.00,,,0.00,VWS V14.01,2013-07-30 10:10:00,
2013-07-30 06:13:00,62.7,62.7,29.74,East,92,0.0,0.0,100,0.00,,,0.00,VWS V14.01,2013-07-30 10:13:00,
2013-07-30 06:18:00,62.5,62.5,29.74,East,92,0.0,0.0,100,0.00,,,0.00,VWS V14.01,2013-07-30 10:18:00,
2013-07-30 06:20:00,62.5,62.5,29.74,East,92,0.0,0.0,100,0.00,,,0.00,VWS V14.01,2013-07-30 10:20:00,
2013-07-30 06:28:00,62.5,62.5,29.74,East,92,0.0,0.0,100,0.00,,,0.00,VWS V14.01,2013-07-30 10:28:00,
2013-07-30 06:30:00,62.5,62.5,29.74,East,92,0.0,0.0,100,0.00,,,0.00,VWS V14.01,2013-07-30 10:30:00,
2013-07-30 06:33:00,62.5,62.5,29.74,East,92,0.0,0.0,100,0.00,,,0.00,VWS V14.01,2013-07-30 10:33:00,
2013-07-30 06:38:00,62.5,62.5,29.74,East,92,0.0,0.0,100,0.00,,,0.00,VWS V14.01,2013-07-30 10:38:00,
2013-07-30 06:40:00,62.5,62.5,29.74,East,92,0.0,0.0,100,0.00,,,0.00,VWS V14.01,2013-07-30 10:40:00,
2013-07-30 06:43:00,62.5,62.5,29.74,East,92,0.0,0.0,100,0.00,,,0.00,VWS V14.01,2013-07-30 10:43:00,
2013-07-30 06:48:00,62.5,62.5,29.74,East,92,0.0,0.0,100,0.00,,,0.00,VWS V14.01,2013-07-30 10:48:00,
2013-07-30 06:50:00,62.5,62.5,29.74,East,92,0.0,0.0,100,0.00,,,0.00,VWS V14.01,2013-07-30 10:50:00,
2013-07-30 06:53:00,62.5,62.5,29.74,East,92,0.0,0.0,100,0.00,,,0.00,VWS V14.01,2013-07-30 10:53:00,
2013-07-30 06:58:00,62.5,62.5,29.74,East,92,0.0,0.0,100,0.00,,,0.00,VWS V14.01,2013-07-30 10:58:00,
2013-07-30 07:00:00,62.5,62.5,29.74,East,92,0.0,0.0,100,0.00,,,0.00,VWS V14.01,2013-07-30 11:00:00,
2013-07-30 07:03:00,62.3,62.3,29.74,East,92,0.0,0.0,100,0.00,,,0.00,VWS V14.01,2013-07-30 11:03:00,
2013-07-30 07:08:00,62.5,62.5,29.74,East,92,0.0,0.0,100,0.00,,,0.00,VWS V14.01,2013-07-30 11:08:00,
2013-07-30 07:10:00,62.5,62.5,29.74,East,92,0.0,0.0,100,0.00,,,0.00,VWS V14.01,2013-07-30 11:10:00,
2013-07-30 07:13:00,62.5,62.5,29.74,East,92,0.0,0.0,100,0.00,,,0.00,VWS V14.01,2013-07-30 11:13:00,
2013-07-30 07:18:00,63.0,63.0,29.74,East,92,0.0,0.0,100,0.00,,,0.00,VWS V14.01,2013-07-30 11:18:00,
2013-07-30 07:20:00,63.0,63.0,29.74,East,92,0.0,0.0,100,0.00,,,0.00,VWS V14.01,2013-07-30 11:20:00,
2013-07-30 07:23:00,63.2,63.2,29.74,East,92,0.0,0.0,100,0.00,,,0.00,VWS V14.01,2013-07-30 11:23:00,
2013-07-30 07:28:00,63.2,63.2,29.74,East,92,0.0,0.0,100,0.00,,,0.00,VWS V14.01,2013-07-30 11:28:00,
2013-07-30 07:33:00,63.6,63.6,29.74,East,92,0.0,0.0,100,0.00,,,0.00,VWS V14.01,2013-07-30 11:33:00,
2013-07-30 07:38:00,63.8,63.8,29.74,East,92,0.0,0.0,100,0.00,,,0.00,VWS V14.01,2013-07-30 11:38:00,
2013-07-30 07:43:00,63.9,63.9,29.74,ESE,116,0.0,0.0,100,0.00,,,0.00,VWS V14.01,2013-07-30 11:43:00,
2013-07-30 07:48:00,64.1,64.1,29.74,ESE,116,0.0,0.0,100,0.00,,,0.00,VWS V14.01,2013-07-30 11:48:00,
2013-07-30 07:50:00,64.1,64.1,29.74,ESE,116,0.0,0.0,100,0.00,,,0.00,VWS V14.01,2013-07-30 11:50:00,
2013-07-30 07:53:00,64.1,64.1,29.74,ESE,116,0.0,0.0,100,0.00,,,0.00,VWS V14.01,2013-07-30 11:53:00,
2013-07-30 07:58:00,64.1,64.1,29.74,ESE,116,0.0,0.0,100,0.00,,,0.00,VWS V14.01,2013-07-30 11:58:00,
2013-07-30 08:00:00,64.8,64.8,29.74,ESE,116,0.0,0.0,100,0.00,,,0.00,VWS V14.01,2013-07-30 12:00:00,
2013-07-30 08:03:00,64.8,64.8,29.74,ESE,116,0.0,0.0,100,0.00,,,0.00,VWS V14.01,2013-07-30 12:03:00,
2013-07-30 08:08:00,65.2,65.2,29.74,ESE,116,0.0,0.0,100,0.00,,,0.00,VWS V14.01,2013-07-30 12:08:00,
2013-07-30 08:10:00,65.2,65.2,29.74,ESE,116,0.0,0.0,100,0.00,,,0.00,VWS V14.01,2013-07-30 12:10:00,
2013-07-30 08:18:00,65.6,65.6,29.74,ESE,116,0.0,0.0,100,0.00,,,0.00,VWS V14.01,2013-07-30 12:18:00,
2013-07-30 08:23:00,65.6,65.6,29.74,ESE,116,0.0,0.0,100,0.00,,,0.00,VWS V14.01,2013-07-30 12:23:00,
2013-07-30 08:28:00,67.7,67.7,29.74,ESE,116,0.0,0.0,100,0.00,,,0.00,VWS V14.01,2013-07-30 12:28:00,
2013-07-30 08:30:00,67.7,67.7,29.74,ESE,116,0.0,0.0,100,0.00,,,0.00,VWS V14.01,2013-07-30 12:30:00,
2013-07-30 08:33:00,67.7,67.7,29.74,ESE,116,0.0,0.0,100,0.00,,,0.00,VWS V14.01,2013-07-30 12:33:00,
2013-07-30 08:38:00,70.2,70.2,29.77,ESE,116,0.0,0.0,100,0.00,,,0.00,VWS V14.01,2013-07-30 12:38:00,
2013-07-30 08:40:00,70.2,70.2,29.77,ESE,116,0.0,0.0,100,0.00,,,0.00,VWS V14.01,2013-07-30 12:40:00,
2013-07-30 08:43:00,70.2,70.2,29.77,ESE,116,0.0,0.0,100,0.00,,,0.00,VWS V14.01,2013-07-30 12:43:00,
2013-07-30 08:48:00,71.3,71.3,29.77,ESE,116,0.0,0.0,100,0.00,,,0.00,VWS V14.01,2013-07-30 12:48:00,
2013-07-30 08:53:00,72.4,72.4,29.77,ESE,116,0.0,0.0,100,0.00,,,0.00,VWS V14.01,2013-07-30 12:53:00,
2013-07-30 08:58:00,72.4,72.4,29.77,SW,228,0.0,0.0,100,0.00,,,0.00,VWS V14.01,2013-07-30 12:58:00,
2013-07-30 09:00:00,72.4,72.4,29.77,SW,228,0.0,0.0,100,0.00,,,0.00,VWS V14.01,2013-07-30 13:00:00,
2013-07-30 09:03:00,72.9,72.9,29.77,SW,228,0.0,0.0,100,0.00,,,0.00,VWS V14.01,2013-07-30 13:03:00,
2013-07-30 09:08:00,72.9,72.9,29.77,SW,228,0.0,0.0,100,0.00,,,0.00,VWS V14.01,2013-07-30 13:08:00,
2013-07-30 09:13:00,72.4,72.4,29.77,SW,229,0.0,0.0,100,0.00,,,0.00,VWS V14.01,2013-07-30 13:13:00,
2013-07-30 09:18:00,72.6,72.6,29.77,SW,229,0.0,0.0,100,0.00,,,0.00,VWS V14.01,2013-07-30 13:18:00,
2013-07-30 09:20:00,72.6,72.6,29.77,SW,229,0.0,0.0,100,0.00,,,0.00,VWS V14.01,2013-07-30 13:20:00,
2013-07-30 09:23:00,72.9,72.9,29.77,SW,229,0.0,0.0,100,0.00,,,0.00,VWS V14.01,2013-07-30 13:23:00,
2013-07-30 09:28:00,74.6,74.6,29.77,SW,229,0.0,0.0,100,0.00,,,0.00,VWS V14.01,2013-07-30 13:28:00,
2013-07-30 09:33:00,74.9,74.9,29.77,SSW,211,0.0,0.0,100,0.00,,,0.00,VWS V14.01,2013-07-30 13:33:00,
2013-07-30 09:38:00,77.1,77.1,29.77,SSW,211,0.0,0.0,100,0.00,,,0.00,VWS V14.01,2013-07-30 13:38:00,
2013-07-30 09:40:00,77.1,77.1,29.77,SSW,211,0.0,0.0,100,0.00,,,0.00,VWS V14.01,2013-07-30 13:40:00,
2013-07-30 09:43:00,80.0,80.0,29.77,SSW,211,0.0,0.0,100,0.00,,,0.00,VWS V14.01,2013-07-30 13:43:00,
2013-07-30 09:48:00,80.1,80.2,29.77,SSW,211,2.2,3.6,100,0.00,,,0.00,VWS V14.01,2013-07-30 13:48:00,
2013-07-30 09:50:00,80.1,80.2,29.77,SSW,211,0.0,3.6,100,0.00,,,0.00,VWS V14.01,2013-07-30 13:50:00,
2013-07-30 09:53:00,80.1,80.2,29.77,SSW,211,0.0,0.0,100,0.00,,,0.00,VWS V14.01,2013-07-30 13:53:00,
2013-07-30 09:58:00,83.9,82.8,29.77,South,173,0.0,0.0,97,0.00,,,0.00,VWS V14.01,2013-07-30 13:58:00,
2013-07-30 10:03:00,84.3,81.7,29.77,South,173,0.0,0.0,92,0.00,,,0.00,VWS V14.01,2013-07-30 14:03:00,
2013-07-30 10:08:00,84.1,81.5,29.77,South,175,0.0,0.0,92,0.00,,,0.00,VWS V14.01,2013-07-30 14:08:00,
2013-07-30 10:13:00,84.5,81.1,29.77,South,175,0.0,0.0,90,0.00,,,0.00,VWS V14.01,2013-07-30 14:13:00,
2013-07-30 10:18:00,84.5,81.1,29.77,South,175,0.0,0.0,90,0.00,,,0.00,VWS V14.01,2013-07-30 14:18:00,
2013-07-30 10:20:00,84.5,81.1,29.77,South,175,0.0,0.0,90,0.00,,,0.00,VWS V14.01,2013-07-30 14:20:00,
2013-07-30 10:23:00,84.5,81.1,29.77,NNW,342,0.0,2.2,90,0.00,,,0.00,VWS V14.01,2013-07-30 14:23:00,
2013-07-30 10:28:00,84.8,78.2,29.77,NNW,342,0.0,2.2,80,0.00,,,0.00,VWS V14.01,2013-07-30 14:28:00,
2013-07-30 10:30:00,84.8,78.2,29.77,NNW,342,0.0,2.2,80,0.00,,,0.00,VWS V14.01,2013-07-30 14:30:00,
2013-07-30 10:33:00,85.5,79.7,29.77,NNW,342,0.0,0.0,83,0.00,,,0.00,VWS V14.01,2013-07-30 14:33:00,
2013-07-30 10:38:00,86.1,78.5,29.77,ENE,58,0.0,2.7,78,0.00,,,0.00,VWS V14.01,2013-07-30 14:38:00,
2013-07-30 10:40:00,86.1,78.5,29.77,SW,229,0.0,2.7,78,0.00,,,0.00,VWS V14.01,2013-07-30 14:40:00,
2013-07-30 10:48:00,86.1,77.6,29.77,SE,146,0.0,2.7,76,0.00,,,0.00,VWS V14.01,2013-07-30 14:48:00,
2013-07-30 10:50:00,86.1,77.6,29.80,SSE,156,3.1,3.1,76,0.00,,,0.00,VWS V14.01,2013-07-30 14:50:00,
2013-07-30 10:58:00,86.8,77.4,29.80,SSE,156,3.1,3.1,74,0.00,,,0.00,VWS V14.01,2013-07-30 14:58:00,
2013-07-30 11:00:00,86.8,77.4,29.80,SSE,156,3.1,3.1,74,0.00,,,0.00,VWS V14.01,2013-07-30 15:00:00,
2013-07-30 11:08:00,87.2,75.8,29.80,East,89,3.1,3.1,69,0.00,,,0.00,VWS V14.01,2013-07-30 15:08:00,
2013-07-30 11:13:00,87.3,74.9,29.80,SSW,203,0.0,3.1,67,0.00,,,0.00,VWS V14.01,2013-07-30 15:13:00,
2013-07-30 11:18:00,87.7,75.2,29.80,SSW,196,2.7,3.1,67,0.00,,,0.00,VWS V14.01,2013-07-30 15:18:00,
2013-07-30 11:20:00,87.7,75.2,29.80,SSW,196,2.7,3.1,67,0.00,,,0.00,VWS V14.01,2013-07-30 15:20:00,
2013-07-30 11:23:00,87.7,75.2,29.80,SSW,196,2.7,2.7,67,0.00,,,0.00,VWS V14.01,2013-07-30 15:23:00,
2013-07-30 11:28:00,87.7,74.2,29.80,SSW,196,0.0,2.7,64,0.00,,,0.00,VWS V14.01,2013-07-30 15:28:00,
2013-07-30 11:30:00,87.7,74.2,29.80,ENE,72,0.0,2.7,64,0.00,,,0.00,VWS V14.01,2013-07-30 15:30:00,
2013-07-30 11:38:00,87.7,74.2,29.80,East,98,0.0,0.0,64,0.00,,,0.00,VWS V14.01,2013-07-30 15:38:00,
2013-07-30 11:43:00,88.4,74.9,29.80,East,98,0.0,0.0,64,0.00,,,0.00,VWS V14.01,2013-07-30 15:43:00,
2013-07-30 11:48:00,89.1,74.5,29.80,SE,140,0.0,0.0,62,0.00,,,0.00,VWS V14.01,2013-07-30 15:48:00,
2013-07-30 11:50:00,90.2,68.1,29.80,SE,140,0.0,0.0,48,0.00,,,0.00,VWS V14.01,2013-07-30 15:50:00,
2013-07-30 11:54:00,90.0,67.9,29.80,SSE,150,0.0,0.0,48,0.00,,,0.00,VWS V14.01,2013-07-30 15:54:00,
2013-07-30 11:59:00,89.7,68.9,29.80,SSW,193,0.0,0.0,51,0.00,,,0.00,VWS V14.01,2013-07-30 15:59:00,
2013-07-30 12:04:00,89.7,68.9,29.80,SSW,193,0.0,0.0,51,0.00,,,0.00,VWS V14.01,2013-07-30 16:04:00,
2013-07-30 12:09:00,89.3,73.5,29.80,SE,126,0.0,0.0,60,0.00,,,0.00,VWS V14.01,2013-07-30 16:09:00,
2013-07-30 12:10:00,90.0,73.0,29.80,SE,126,0.0,0.0,58,0.00,,,0.00,VWS V14.01,2013-07-30 16:10:00,
2013-07-30 12:19:00,90.0,71.8,29.80,SSE,167,0.0,0.0,55,0.00,,,0.00,VWS V14.01,2013-07-30 16:19:00,
2013-07-30 12:20:00,90.0,71.8,29.80,NE,34,0.0,0.0,55,0.00,,,0.00,VWS V14.01,2013-07-30 16:20:00,
2013-07-30 12:24:00,90.0,69.3,29.80,NNE,29,2.2,2.7,51,0.00,,,0.00,VWS V14.01,2013-07-30 16:24:00,
2013-07-30 12:29:00,90.0,67.9,29.80,NE,50,2.2,2.7,48,0.00,,,0.00,VWS V14.01,2013-07-30 16:29:00,
2013-07-30 12:30:00,90.0,67.9,29.80,NE,50,2.2,2.7,48,0.00,,,0.00,VWS V14.01,2013-07-30 16:30:00,
2013-07-30 12:39:00,90.0,65.0,29.80,WSW,242,0.0,2.2,44,0.00,,,0.00,VWS V14.01,2013-07-30 16:39:00,
2013-07-30 12:40:00,90.0,65.0,29.80,WSW,242,0.0,2.2,44,0.00,,,0.00,VWS V14.01,2013-07-30 16:40:00,
2013-07-30 12:44:00,90.0,65.0,29.80,NNE,20,2.7,2.7,44,0.00,,,0.00,VWS V14.01,2013-07-30 16:44:00,
2013-07-30 12:49:00,88.6,63.7,29.80,West,279,2.7,2.7,44,0.00,,,0.00,VWS V14.01,2013-07-30 16:49:00,
2013-07-30 12:50:00,88.6,63.7,29.80,NNW,341,2.7,2.7,44,0.00,,,0.00,VWS V14.01,2013-07-30 16:50:00,
2013-07-30 12:54:00,89.0,62.5,29.80,NNW,341,2.7,2.7,41,0.00,,,0.00,VWS V14.01,2013-07-30 16:54:00,
2013-07-30 12:59:00,89.0,62.5,29.80,NE,40,2.7,2.7,41,0.00,,,0.00,VWS V14.01,2013-07-30 16:59:00,
2013-07-30 13:00:00,89.0,62.5,29.80,NE,40,2.7,2.7,41,0.00,,,0.00,VWS V14.01,2013-07-30 17:00:00,
2013-07-30 13:04:00,87.9,63.1,29.80,WNW,283,2.7,2.7,44,0.00,,,0.00,VWS V14.01,2013-07-30 17:04:00,
2013-07-30 13:09:00,87.9,63.1,29.80,WNW,283,2.7,2.7,44,0.00,,,0.00,VWS V14.01,2013-07-30 17:09:00,
2013-07-30 13:10:00,87.9,63.1,29.80,WNW,283,2.7,2.7,44,0.00,,,0.00,VWS V14.01,2013-07-30 17:10:00,
2013-07-30 13:14:00,88.6,65.2,29.80,WNW,283,2.7,2.7,46,0.00,,,0.00,VWS V14.01,2013-07-30 17:14:00,
2013-07-30 13:19:00,88.8,65.3,29.80,ENE,73,2.7,4.0,46,0.00,,,0.00,VWS V14.01,2013-07-30 17:19:00,
2013-07-30 13:20:00,88.8,65.3,29.80,ENE,73,2.7,4.0,46,0.00,,,0.00,VWS V14.01,2013-07-30 17:20:00,
2013-07-30 13:24:00,88.8,65.3,29.80,ENE,74,0.0,2.7,46,0.00,,,0.00,VWS V14.01,2013-07-30 17:24:00,
2013-07-30 13:29:00,89.3,64.4,29.80,ENE,74,0.0,2.7,44,0.00,,,0.00,VWS V14.01,2013-07-30 17:29:00,
2013-07-30 13:30:00,89.3,64.4,29.80,ENE,74,0.0,2.7,44,0.00,,,0.00,VWS V14.01,2013-07-30 17:30:00,
2013-07-30 13:34:00,89.3,64.4,29.80,SSW,213,2.7,2.7,44,0.00,,,0.00,VWS V14.01,2013-07-30 17:34:00,
2013-07-30 13:39:00,89.7,64.7,29.80,North,2,0.0,2.7,44,0.00,,,0.00,VWS V14.01,2013-07-30 17:39:00,
2013-07-30 13:44:00,89.3,62.8,29.80,NNW,327,2.7,2.7,41,0.00,,,0.00,VWS V14.01,2013-07-30 17:44:00,
2013-07-30 13:49:00,88.8,62.3,29.80,NNW,327,2.7,2.7,41,0.00,,,0.00,VWS V14.01,2013-07-30 17:49:00,
2013-07-30 13:50:00,88.8,62.3,29.80,North,353,2.2,2.7,41,0.00,,,0.00,VWS V14.01,2013-07-30 17:50:00,
2013-07-30 13:59:00,88.1,63.2,29.80,NNE,23,5.8,5.8,44,0.00,,,0.00,VWS V14.01,2013-07-30 17:59:00,
2013-07-30 14:00:00,88.1,63.2,29.80,NNE,23,5.8,5.8,44,0.00,,,0.00,VWS V14.01,2013-07-30 18:00:00,
2013-07-30 14:04:00,87.0,65.1,29.80,North,10,4.9,5.8,48,0.00,,,0.00,VWS V14.01,2013-07-30 18:04:00,
2013-07-30 14:09:00,87.0,65.1,29.80,North,5,5.4,5.8,48,0.00,,,0.00,VWS V14.01,2013-07-30 18:09:00,
2013-07-30 14:10:00,87.0,65.1,29.80,North,5,5.4,5.8,48,0.00,,,0.00,VWS V14.01,2013-07-30 18:10:00,
2013-07-30 14:14:00,87.0,65.1,29.80,ENE,62,3.1,5.4,48,0.00,,,0.00,VWS V14.01,2013-07-30 18:14:00,
2013-07-30 14:19:00,88.1,67.4,29.80,North,357,3.1,5.4,51,0.00,,,0.00,VWS V14.01,2013-07-30 18:19:00,
2013-07-30 14:20:00,88.4,66.4,29.80,North,357,3.1,5.4,48,0.00,,,0.00,VWS V14.01,2013-07-30 18:20:00,
2013-07-30 14:24:00,88.4,66.4,29.80,North,357,3.1,3.1,48,0.00,,,0.00,VWS V14.01,2013-07-30 18:24:00,
2013-07-30 14:29:00,88.4,65.0,29.80,ENE,73,2.7,3.6,46,0.00,,,0.00,VWS V14.01,2013-07-30 18:29:00,
2013-07-30 14:34:00,88.4,63.6,29.80,North,357,2.7,2.7,44,0.00,,,0.00,VWS V14.01,2013-07-30 18:34:00,
2013-07-30 14:39:00,88.8,63.9,29.80,North,357,2.7,2.7,44,0.00,,,0.00,VWS V14.01,2013-07-30 18:39:00,
2013-07-30 14:40:00,88.8,63.9,29.80,NE,48,2.2,2.7,44,0.00,,,0.00,VWS V14.01,2013-07-30 18:40:00,
2013-07-30 14:49:00,89.5,63.0,29.80,ENE,69,2.7,2.7,41,0.00,,,0.00,VWS V14.01,2013-07-30 18:49:00,
2013-07-30 14:54:00,88.8,62.3,29.80,NNE,33,0.0,2.7,41,0.00,,,0.00,VWS V14.01,2013-07-30 18:54:00,
2013-07-30 14:59:00,89.0,64.1,29.80,NNE,32,0.0,2.7,44,0.00,,,0.00,VWS V14.01,2013-07-30 18:59:00,
2013-07-30 15:00:00,89.0,64.1,29.80,NNE,32,0.0,2.7,44,0.00,,,0.00,VWS V14.01,2013-07-30 19:00:00,
2013-07-30 15:04:00,89.3,62.8,29.80,NNE,32,0.0,0.0,41,0.00,,,0.00,VWS V14.01,2013-07-30 19:04:00,
2013-07-30 15:09:00,89.3,62.8,29.80,NW,320,0.0,0.0,41,0.00,,,0.00,VWS V14.01,2013-07-30 19:09:00,
2013-07-30 15:10:00,89.3,65.8,29.80,NW,320,0.0,0.0,46,0.00,,,0.00,VWS V14.01,2013-07-30 19:10:00,
2013-07-30 15:14:00,89.3,65.8,29.80,NE,45,0.0,0.0,46,0.00,,,0.00,VWS V14.01,2013-07-30 19:14:00,
2013-07-30 15:19:00,89.9,64.9,29.80,South,190,2.2,2.2,44,0.00,,,0.00,VWS V14.01,2013-07-30 19:19:00,
2013-07-30 15:20:00,89.7,64.7,29.80,South,190,2.2,2.2,44,0.00,,,0.00,VWS V14.01,2013-07-30 19:20:00,
2013-07-30 15:29:00,89.5,63.0,29.80,ENE,71,2.7,2.7,41,0.00,,,0.00,VWS V14.01,2013-07-30 19:29:00,
2013-07-30 15:30:00,89.5,63.0,29.80,ENE,71,2.7,2.7,41,0.00,,,0.00,VWS V14.01,2013-07-30 19:30:00,
2013-07-30 15:34:00,89.0,62.5,29.80,ENE,70,0.0,2.7,41,0.00,,,0.00,VWS V14.01,2013-07-30 19:34:00,
2013-07-30 15:39:00,88.8,62.3,29.80,ENE,70,0.0,2.7,41,0.00,,,0.00,VWS V14.01,2013-07-30 19:39:00,
2013-07-30 15:40:00,88.8,62.3,29.80,East,79,3.6,3.6,41,0.00,,,0.00,VWS V14.01,2013-07-30 19:40:00,
2013-07-30 15:44:00,89.3,62.8,29.80,East,91,3.1,3.6,41,0.00,,,0.00,VWS V14.01,2013-07-30 19:44:00,
2013-07-30 15:49:00,89.7,64.7,29.80,East,89,3.6,3.6,44,0.00,,,0.00,VWS V14.01,2013-07-30 19:49:00,
2013-07-30 15:54:00,90.2,63.6,29.80,East,89,0.0,3.6,41,0.00,,,0.00,VWS V14.01,2013-07-30 19:54:00,
2013-07-30 15:59:00,91.3,64.6,29.80,South,174,3.6,3.6,41,0.00,,,0.00,VWS V14.01,2013-07-30 19:59:00,
2013-07-30 16:00:00,91.3,64.6,29.80,South,174,3.6,3.6,41,0.00,,,0.00,VWS V14.01,2013-07-30 20:00:00,
2013-07-30 16:04:00,92.0,65.2,29.80,South,174,0.0,3.6,41,0.00,,,0.00,VWS V14.01,2013-07-30 20:04:00,
2013-07-30 16:09:00,92.4,63.9,29.80,South,174,0.0,3.6,39,0.00,,,0.00,VWS V14.01,2013-07-30 20:09:00,
2013-07-30 16:10:00,92.4,63.9,29.80,South,174,0.0,3.6,39,0.00,,,0.00,VWS V14.01,2013-07-30 20:10:00,
2013-07-30 16:19:00,90.9,62.7,29.80,NNE,20,0.0,2.7,39,0.00,,,0.00,VWS V14.01,2013-07-30 20:19:00,
2013-07-30 16:20:00,90.9,62.7,29.80,NNE,21,2.2,2.7,39,0.00,,,0.00,VWS V14.01,2013-07-30 20:20:00,
2013-07-30 16:24:00,90.6,62.3,29.80,NNE,21,2.2,2.2,39,0.00,,,0.00,VWS V14.01,2013-07-30 20:24:00,
2013-07-30 16:29:00,90.8,64.1,29.80,NNE,14,0.0,2.2,41,0.00,,,0.00,VWS V14.01,2013-07-30 20:29:00,
2013-07-30 16:30:00,90.8,64.1,29.80,NNE,14,0.0,2.2,41,0.00,,,0.00,VWS V14.01,2013-07-30 20:30:00,
2013-07-30 16:34:00,90.8,64.1,29.80,NE,34,3.6,3.6,41,0.00,,,0.00,VWS V14.01,2013-07-30 20:34:00,
2013-07-30 16:39:00,89.7,63.2,29.80,ENE,68,2.7,3.6,41,0.00,,,0.00,VWS V14.01,2013-07-30 20:39:00,
2013-07-30 16:40:00,89.7,63.2,29.80,ENE,68,2.7,3.6,41,0.00,,,0.00,VWS V14.01,2013-07-30 20:40:00,
2013-07-30 16:44:00,89.7,63.2,29.80,ENE,68,2.7,3.1,41,0.00,,,0.00,VWS V14.01,2013-07-30 20:44:00,
2013-07-30 16:49:00,89.7,64.7,29.80,ENE,68,0.0,3.1,44,0.00,,,0.00,VWS V14.01,2013-07-30 20:49:00,
2013-07-30 16:50:00,89.7,64.7,29.80,ENE,68,0.0,3.1,44,0.00,,,0.00,VWS V14.01,2013-07-30 20:50:00,
2013-07-30 16:59:00,90.2,63.6,29.80,South,183,2.2,2.2,41,0.00,,,0.00,VWS V14.01,2013-07-30 20:59:00,
2013-07-30 17:00:00,90.2,63.6,29.80,South,183,0.0,2.2,41,0.00,,,0.00,VWS V14.01,2013-07-30 21:00:00,
2013-07-30 17:04:00,91.7,64.9,29.80,South,183,0.0,0.0,41,0.00,,,0.00,VWS V14.01,2013-07-30 21:04:00,
2013-07-30 17:09:00,91.8,65.1,29.80,South,179,0.0,0.0,41,0.00,,,0.00,VWS V14.01,2013-07-30 21:09:00,
2013-07-30 17:10:00,91.8,65.1,29.80,South,179,0.0,0.0,41,0.00,,,0.00,VWS V14.01,2013-07-30 21:10:00,
2013-07-30 17:14:00,91.8,65.1,29.80,South,179,0.0,0.0,41,0.00,,,0.00,VWS V14.01,2013-07-30 21:14:00,
2013-07-30 17:19:00,92.0,63.6,29.80,South,169,0.0,0.0,39,0.00,,,0.00,VWS V14.01,2013-07-30 21:19:00,
2013-07-30 17:20:00,92.0,63.6,29.80,South,169,0.0,0.0,39,0.00,,,0.00,VWS V14.01,2013-07-30 21:20:00,
2013-07-30 17:29:00,92.4,63.9,29.80,South,173,0.0,0.0,39,0.00,,,0.00,VWS V14.01,2013-07-30 21:29:00,
2013-07-30 17:30:00,92.4,63.9,29.80,South,173,0.0,0.0,39,0.00,,,0.00,VWS V14.01,2013-07-30 21:30:00,
2013-07-30 17:39:00,92.4,65.6,29.80,South,173,0.0,0.0,41,0.00,,,0.00,VWS V14.01,2013-07-30 21:39:00,
2013-07-30 17:40:00,92.4,65.6,29.80,South,173,0.0,0.0,41,0.00,,,0.00,VWS V14.01,2013-07-30 21:40:00,
2013-07-30 17:44:00,92.4,65.6,29.80,South,171,0.0,0.0,41,0.00,,,0.00,VWS V14.01,2013-07-30 21:44:00,
2013-07-30 17:49:00,92.4,65.6,29.80,South,171,0.0,0.0,41,0.00,,,0.00,VWS V14.01,2013-07-30 21:49:00,
2013-07-30 17:50:00,92.4,65.6,29.80,South,171,0.0,0.0,41,0.00,,,0.00,VWS V14.01,2013-07-30 21:50:00,
2013-07-30 17:54:00,92.2,67.0,29.80,South,171,0.0,0.0,44,0.00,,,0.00,VWS V14.01,2013-07-30 21:54:00,
2013-07-30 17:59:00,92.6,65.7,29.80,South,171,0.0,0.0,41,0.00,,,0.00,VWS V14.01,2013-07-30 21:59:00,
2013-07-30 18:04:00,92.4,65.6,29.80,South,171,0.0,0.0,41,0.00,,,0.00,VWS V14.01,2013-07-30 22:04:00,
2013-07-30 18:09:00,92.6,65.7,29.80,South,171,0.0,0.0,41,0.00,,,0.00,VWS V14.01,2013-07-30 22:09:00,
2013-07-30 18:10:00,92.6,65.7,29.80,South,171,0.0,0.0,41,0.00,,,0.00,VWS V14.01,2013-07-30 22:10:00,
2013-07-30 18:14:00,91.3,64.6,29.80,South,171,0.0,0.0,41,0.00,,,0.00,VWS V14.01,2013-07-30 22:14:00,
2013-07-30 18:19:00,90.8,71.2,29.80,South,171,0.0,0.0,53,0.00,,,0.00,VWS V14.01,2013-07-30 22:19:00,
2013-07-30 18:20:00,90.6,71.1,29.80,South,171,0.0,0.0,53,0.00,,,0.00,VWS V14.01,2013-07-30 22:20:00,
2013-07-30 18:24:00,90.4,73.4,29.80,South,171,0.0,0.0,58,0.00,,,0.00,VWS V14.01,2013-07-30 22:24:00,
2013-07-30 18:29:00,90.0,75.3,29.80,South,171,0.0,0.0,62,0.00,,,0.00,VWS V14.01,2013-07-30 22:29:00,
2013-07-30 18:30:00,90.0,75.3,29.80,South,171,0.0,0.0,62,0.00,,,0.00,VWS V14.01,2013-07-30 22:30:00,
2013-07-30 18:39:00,89.7,77.1,29.80,South,171,0.0,0.0,67,0.00,,,0.00,VWS V14.01,2013-07-30 22:39:00,
2013-07-30 18:40:00,89.7,77.1,29.80,South,171,0.0,0.0,67,0.00,,,0.00,VWS V14.01,2013-07-30 22:40:00,
2013-07-30 18:44:00,89.5,75.9,29.80,South,171,0.0,0.0,64,0.00,,,0.00,VWS V14.01,2013-07-30 22:44:00,
2013-07-30 18:49:00,89.3,75.7,29.80,South,171,0.0,0.0,64,0.00,,,0.00,VWS V14.01,2013-07-30 22:49:00,
2013-07-30 18:50:00,89.3,75.7,29.80,South,171,0.0,0.0,64,0.00,,,0.00,VWS V14.01,2013-07-30 22:50:00,
2013-07-30 18:54:00,88.8,76.3,29.80,South,171,0.0,0.0,67,0.00,,,0.00,VWS V14.01,2013-07-30 22:54:00,
2013-07-30 18:59:00,88.8,76.3,29.80,South,171,0.0,0.0,67,0.00,,,0.00,VWS V14.01,2013-07-30 22:59:00,
2013-07-30 19:00:00,88.8,76.3,29.80,South,171,0.0,0.0,67,0.00,,,0.00,VWS V14.01,2013-07-30 23:00:00,
2013-07-30 19:04:00,87.3,76.9,29.80,South,171,0.0,0.0,71,0.00,,,0.00,VWS V14.01,2013-07-30 23:04:00,
2013-07-30 19:09:00,87.0,77.5,29.80,South,171,0.0,0.0,74,0.00,,,0.00,VWS V14.01,2013-07-30 23:09:00,
2013-07-30 19:10:00,87.0,77.5,29.80,South,171,0.0,0.0,74,0.00,,,0.00,VWS V14.01,2013-07-30 23:10:00,
2013-07-30 19:14:00,86.4,77.9,29.80,South,171,0.0,0.0,76,0.00,,,0.00,VWS V14.01,2013-07-30 23:14:00,
2013-07-30 19:19:00,85.7,79.9,29.80,South,171,0.0,0.0,83,0.00,,,0.00,VWS V14.01,2013-07-30 23:19:00,
2013-07-30 19:24:00,85.5,79.7,29.80,South,171,0.0,0.0,83,0.00,,,0.00,VWS V14.01,2013-07-30 23:24:00,
2013-07-30 19:29:00,84.6,81.3,29.80,South,171,0.0,0.0,90,0.00,,,0.00,VWS V14.01,2013-07-30 23:29:00,
2013-07-30 19:30:00,84.6,81.3,29.80,South,171,0.0,0.0,90,0.00,,,0.00,VWS V14.01,2013-07-30 23:30:00,
2013-07-30 19:34:00,84.5,81.1,29.80,South,171,0.0,0.0,90,0.00,,,0.00,VWS V14.01,2013-07-30 23:34:00,
2013-07-30 19:40:00,83.4,82.3,29.80,South,171,0.0,0.0,97,0.00,,,0.00,VWS V14.01,2013-07-30 23:40:00,
2013-07-30 19:45:00,83.2,82.1,29.80,South,171,0.0,0.0,97,0.00,,,0.00,VWS V14.01,2013-07-30 23:45:00,
2013-07-30 19:50:00,82.5,82.5,29.80,South,171,0.0,0.0,100,0.00,,,0.00,VWS V14.01,2013-07-30 23:50:00,
2013-07-30 19:55:00,81.2,81.2,29.80,South,171,0.0,0.0,100,0.00,,,0.00,VWS V14.01,2013-07-30 23:55:00,
2013-07-30 20:00:00,80.9,80.9,29.80,South,171,0.0,0.0,100,0.00,,,0.00,VWS V14.01,2013-07-31 00:00:00,
2013-07-30 20:05:00,80.1,80.2,29.80,South,171,0.0,0.0,100,0.00,,,0.00,VWS V14.01,2013-07-31 00:05:00,
2013-07-30 20:10:00,80.0,80.0,29.83,South,171,0.0,0.0,100,0.00,,,0.00,VWS V14.01,2013-07-31 00:10:00,
2013-07-30 20:15:00,79.4,79.4,29.83,South,171,0.0,0.0,100,0.00,,,0.00,VWS V14.01,2013-07-31 00:15:00,
2013-07-30 20:20:00,78.9,78.9,29.83,South,171,0.0,0.0,100,0.00,,,0.00,VWS V14.01,2013-07-31 00:20:00,
2013-07-30 20:25:00,78.3,78.3,29.83,South,171,0.0,0.0,100,0.00,,,0.00,VWS V14.01,2013-07-31 00:25:00,
2013-07-30 20:30:00,77.8,77.8,29.83,South,171,0.0,0.0,100,0.00,,,0.00,VWS V14.01,2013-07-31 00:30:00,
2013-07-30 20:35:00,77.3,77.3,29.83,South,171,0.0,0.0,100,0.00,,,0.00,VWS V14.01,2013-07-31 00:35:00,
2013-07-30 20:40:00,76.7,76.7,29.83,South,171,0.0,0.0,100,0.00,,,0.00,VWS V14.01,2013-07-31 00:40:00,
2013-07-30 20:45:00,76.5,76.6,29.83,South,171,0.0,0.0,100,0.00,,,0.00,VWS V14.01,2013-07-31 00:45:00,
2013-07-30 20:50:00,76.0,76.0,29.83,South,171,0.0,0.0,100,0.00,,,0.00,VWS V14.01,2013-07-31 00:50:00,
2013-07-30 20:55:00,75.5,75.5,29.83,South,171,0.0,0.0,100,0.00,,,0.00,VWS V14.01,2013-07-31 00:55:00,
2013-07-30 21:00:00,75.3,75.3,29.83,South,171,0.0,0.0,100,0.00,,,0.00,VWS V14.01,2013-07-31 01:00:00,
2013-07-30 21:05:00,74.9,74.9,29.83,South,171,0.0,0.0,100,0.00,,,0.00,VWS V14.01,2013-07-31 01:05:00,
2013-07-30 21:10:00,74.9,74.9,29.83,South,171,0.0,0.0,100,0.00,,,0.00,VWS V14.01,2013-07-31 01:10:00,
2013-07-30 21:15:00,74.4,74.4,29.80,South,171,0.0,0.0,100,0.00,,,0.00,VWS V14.01,2013-07-31 01:15:00,
2013-07-30 21:20:00,74.4,74.4,29.80,South,171,0.0,0.0,100,0.00,,,0.00,VWS V14.01,2013-07-31 01:20:00,
2013-07-30 21:25:00,73.8,73.8,29.80,South,171,0.0,0.0,100,0.00,,,0.00,VWS V14.01,2013-07-31 01:25:00,
2013-07-30 21:30:00,73.7,73.7,29.80,South,171,0.0,0.0,100,0.00,,,0.00,VWS V14.01,2013-07-31 01:30:00,
2013-07-30 21:35:00,73.7,73.7,29.80,South,171,0.0,0.0,100,0.00,,,0.00,VWS V14.01,2013-07-31 01:35:00,
2013-07-30 21:40:00,73.3,73.3,29.80,South,171,0.0,0.0,100,0.00,,,0.00,VWS V14.01,2013-07-31 01:40:00,
2013-07-30 21:45:00,73.3,73.3,29.80,South,171,0.0,0.0,100,0.00,,,0.00,VWS V14.01,2013-07-31 01:45:00,
2013-07-30 21:50:00,72.9,72.9,29.80,South,171,0.0,0.0,100,0.00,,,0.00,VWS V14.01,2013-07-31 01:50:00,
2013-07-30 21:55:00,72.8,72.8,29.80,South,171,0.0,0.0,100,0.00,,,0.00,VWS V14.01,2013-07-31 01:55:00,
2013-07-30 22:00:00,72.8,72.8,29.80,South,171,0.0,0.0,100,0.00,,,0.00,VWS V14.01,2013-07-31 02:00:00,
2013-07-30 22:05:00,72.4,72.4,29.80,South,171,0.0,0.0,100,0.00,,,0.00,VWS V14.01,2013-07-31 02:05:00,
2013-07-30 22:10:00,72.4,72.4,29.83,South,171,0.0,0.0,100,0.00,,,0.00,VWS V14.01,2013-07-31 02:10:00,
2013-07-30 22:15:00,72.2,72.2,29.83,South,171,0.0,0.0,100,0.00,,,0.00,VWS V14.01,2013-07-31 02:15:00,
2013-07-30 22:20:00,72.0,72.0,29.83,South,171,0.0,0.0,100,0.00,,,0.00,VWS V14.01,2013-07-31 02:20:00,
2013-07-30 22:25:00,72.0,72.0,29.80,South,171,0.0,0.0,100,0.00,,,0.00,VWS V14.01,2013-07-31 02:25:00,
2013-07-30 22:30:00,71.7,71.7,29.80,South,171,0.0,0.0,100,0.00,,,0.00,VWS V14.01,2013-07-31 02:30:00,
2013-07-30 22:35:00,71.7,71.7,29.80,South,171,0.0,0.0,100,0.00,,,0.00,VWS V14.01,2013-07-31 02:35:00,
2013-07-30 22:40:00,71.5,71.5,29.80,South,171,0.0,0.0,100,0.00,,,0.00,VWS V14.01,2013-07-31 02:40:00,
2013-07-30 22:45:00,71.5,71.5,29.80,South,171,0.0,0.0,100,0.00,,,0.00,VWS V14.01,2013-07-31 02:45:00,
2013-07-30 22:50:00,71.3,71.3,29.80,South,171,0.0,0.0,100,0.00,,,0.00,VWS V14.01,2013-07-31 02:50:00,
2013-07-30 22:55:00,71.3,71.3,29.80,South,171,0.0,0.0,100,0.00,,,0.00,VWS V14.01,2013-07-31 02:55:00,
2013-07-30 23:00:00,71.1,71.1,29.80,South,171,0.0,0.0,100,0.00,,,0.00,VWS V14.01,2013-07-31 03:00:00,
2013-07-30 23:05:00,71.0,71.0,29.80,South,171,0.0,0.0,100,0.00,,,0.00,VWS V14.01,2013-07-31 03:05:00,
2013-07-30 23:10:00,71.0,71.0,29.80,South,171,0.0,0.0,100,0.00,,,0.00,VWS V14.01,2013-07-31 03:10:00,
2013-07-30 23:15:00,70.8,70.8,29.80,South,171,0.0,0.0,100,0.00,,,0.00,VWS V14.01,2013-07-31 03:15:00,
2013-07-30 23:20:00,70.8,70.8,29.80,South,171,0.0,0.0,100,0.00,,,0.00,VWS V14.01,2013-07-31 03:20:00,
2013-07-30 23:25:00,70.8,70.8,29.80,South,171,0.0,0.0,100,0.00,,,0.00,VWS V14.01,2013-07-31 03:25:00,
2013-07-30 23:30:00,70.8,70.8,29.80,South,171,0.0,0.0,100,0.00,,,0.00,VWS V14.01,2013-07-31 03:30:00,
2013-07-30 23:35:00,70.8,70.8,29.80,South,171,0.0,0.0,100,0.00,,,0.00,VWS V14.01,2013-07-31 03:35:00,
2013-07-30 23:40:00,70.6,70.6,29.80,South,171,0.0,0.0,100,0.00,,,0.00,VWS V14.01,2013-07-31 03:40:00,
2013-07-30 23:45:00,70.6,70.6,29.80,South,171,0.0,0.0,100,0.00,,,0.00,VWS V14.01,2013-07-31 03:45:00,
2013-07-30 23:50:00,70.2,70.2,29.80,South,171,0.0,0.0,100,0.00,,,0.00,VWS V14.01,2013-07-31 03:50:00,
2013-07-30 23:55:00,70.2,70.2,29.80,South,171,0.0,0.0,100,0.00,,,0.00,VWS V14.01,2013-07-31 03:55:00,